User: anonymous   Login
Location: Dappach
(48.9767°N, 9.6998°E)
Time: 23:20:54
(UTC+00:00)
Language:

Cosmos 1741 Rocket - Orbit

View from above orbital plane
View from above orbital plane
View from above satellite
View from above satellite

Ground track
Ground track

The orbit data is extracted from the following two-line orbital elements,

1 16682U 86030B   24204.79596023  .00000660  00000-0  23271-3 0  9993
2 16682  74.0255 143.7211 0015433 216.7740 163.7757 14.36651213  3337
Epoch (UTC): 22 July 2024 19:06:10
Eccentricity: 0.0015433
inclination: 74.0255°
perigee height: 758 km
apogee height: 780 km
right ascension of ascending node: 143.7211°
argument of perigee: 216.7740°
revolutions per day: 14.36651213
mean anomaly at epoch: 163.7757°
orbit number at epoch: 333

The dashed part of the orbit path shows where the satellite is in the earth's shadow,  

DLR